Preview of NWS' New Version of Forecast
This preview is not operational and should not be used for support decisions.

Regional Weather Roundup (RWR)

Issued by Mobile/Pensacola (MOB)

                            
000
ASUS44 KMOB 160812
RWRMOB
REGIONAL WEATHER ROUNDUP
NATIONAL WEATHER SERVICE MOBILE AL
300 AM CDT TUE OCT 16 2018

NOTE: "FAIR" INDICATES FEW OR NO CLOUDS BELOW 12,000 FEET WITH NO
      SIGNIFICANT WEATHER AND/OR OBSTRUCTIONS TO VISIBILITY.

  * THESE STATIONS ARE PART OF THE UNIVERSITY OF SOUTH ALABAMA 
    MESONET AND ARE NOT UNDER NWS OR FAA QUALITY CONTROL. 

ALZ061>064-160900-
COASTAL ALABAMA
  
CITY           SKY/WX    TMP DP  RH WIND       PRES   REMARKS
MOBILE REG APT CLOUDY    77  76  96 N3        30.08S                  
BROOKLEY FIELD MOCLDY    79  79 100 E7        30.07F                  
USA CAMPUS*      N/A     75  75 100 CALM      30.08R                  
DOG RIVER*       N/A     77  77 100 CALM        N/A                   

  
CITY           SKY/WX    TMP DP  RH WIND       PRES   REMARKS
GULF SHORES    FOG       73  73 100 CALM      30.06F VSB 1/2          

$$

ALZ051>060-160900-
INTERIOR SOUTHWEST AND SOUTH CENTRAL ALABAMA
  
CITY           SKY/WX    TMP DP  RH WIND       PRES   REMARKS
GREENVILLE     FAIR      72  68  87 CALM      30.08F                  
EVERGREEN      FAIR      71  68  90 CALM      30.09F                  
ATMORE*          N/A    N/A N/A N/A CALM      30.81F                  
ANDALUSIA/OPP  MOCLDY    74  71  91 SE3       30.09F FOG              
ANDALUSIA*       N/A    N/A N/A N/A E2        30.09F                  
FLORALA APT    CLOUDY    74  71  91 CALM      30.10F FOG              
FLORALA*         N/A     70  70 100 CALM      30.81F                  

$$

FLZ001>006-160900-
WESTERN FLORIDA PANHANDLE
  
CITY           SKY/WX    TMP DP  RH WIND       PRES   REMARKS
PENSACOLA      FOG       77  75  93 E3        30.06F VSB 1/4          
NAS PENSACOLA  NOT AVBL                                               
MILTON         NOT AVBL                                               
WHTNG S FIELD  NOT AVBL                                               

  
CITY           SKY/WX    TMP DP  RH WIND       PRES   REMARKS
JAY*             N/A    N/A N/A N/A CALM        N/A                   
DUKE FIELD     FOG       70  70 100 CALM      30.07F VSB 1/2          
CRESTVIEW      FOG       73  72  96 CALM      30.09F VSB 1/4          
VALPARAISO     PTCLDY    75  74  97 CALM      30.06F FOG              
DESTIN         FAIR      77  76  96 CALM      30.07F                  

$$

MSZ076-079-160900-
INTERIOR SOUTHEAST MISSISSIPPI
  
CITY           SKY/WX    TMP DP  RH WIND       PRES   REMARKS
LEAKESVILLE*   NOT AVBL                                               
AGRICOLA*        N/A     72  72 100 N3        30.08S                  

$$

MARINE OBSERVATIONS
  
STATION/POSITION TIME  TEMP    WIND        PRES    WAVE
                       AIR SEA DIR/SP/G            HT/PER
                 (UTC) (F)     (DEG/KT/KT) (MB)    (FT/S)
PETIT BOIS ISLND 0742   79     100/  5/  6 1018.5F
GRAND BAY        0645   80      80/  6     1019.0S
KATRINA CUT      0730   79      80/  8     1018.3S
CEDAR POINT      0730   79      80/  8     1017.3F
E DAUPHIN ISLAND 0700   79      60/  6/  6 1018.0F
MIDDLE BAY LIGHT 0730   78      50/ 10     1017.3F
USCG MOBILE BAY  0742   76 81   70/  6/  8 1018.1F
STATE DOCKS      0742   76 81              1017.9F
WEEKS BAY        0630   74                 1018.0S
FORT MORGAN      0748   79     130/  7/  7 1017.9F
12 S ORANGE BCH  0750   81                 1018.1S   2/ 5
PENSACOLA BAY    0748   79 80   70/  2/  3 1018.3F
64 S DAUPHIN ISL 0750          130/ 12/ 14 1017.6R   3/ 4

$$

SELECTED LOCATIONS ACROSS THE REGION
  
CITY           SKY/WX    TMP DP  RH WIND       PRES   REMARKS
NEW ORLEANS    CLOUDY    76  75  97 N5        30.04F                  
GULFPORT       MOCLDY    79  75  87 N3        30.05S                  
PASCAGOULA AP  FOG       73  70  90 CALM      30.06S VSB 1/2          
PASCAGOULA*      N/A     79  79 100 CALM      30.05F                  
HATTIESBURG    LGT RAIN  73  72  96 E3        30.08F                  
LAUREL         LGT RAIN  72  71  97 N3        30.11R                  
MERIDIAN       CLOUDY    68  63  84 N13       30.12S                  
JACKSON        CLOUDY    59  57  93 N9        30.15S                  
MONTGOMERY     FAIR      72  71  97 NW3       30.09S FOG              
TROY           FOG       71  71 100 CALM      30.10F VSB 1/4          
ASHFORD*         N/A    N/A N/A N/A E2        30.09F                  
DOTHAN         FAIR      71  69  93 CALM      30.12F FOG              
PANAMA CITY    NOT AVBL                                               

$$